Home   Weather   Drummondville   Past weeks

Flag for Canada Past Weather in Drummondville, Quebec, Canada — Yesterday and Last 2 Weeks

Now
56 °F

Cool.


Feels Like: 54 °F
Forecast: 53 / 67 °F
Wind: 7 mph from West

Location: Nicolet

Current Time: Sep 27, 2016 at 10:05:02 AM

Latest Report: Sep 27, 2016 at 9:00 AM


Visibility: N/A

Pressure: 29.85 "Hg

Humidity: 94%

Dew Point: 54 °F

Location of DrummondvilleLocation

Past Weather in Drummondville — Graph

°F

Drummondville Temperature Yesterday

Maximum temperature yesterday: 61 °F (at 4:00 PM)
Minimum temperature yesterday: 36 °F (at 6:00 AM)
Average temperature yesterday: 48 °F

High & Low Weather Summary for the Past Weeks

 TemperatureHumidityPressure
High78 °F (Sep 18, 3:00 PM)100% (Sep 18, 8:00 AM)30.34 "Hg (Sep 18, 8:00 AM)
Low36 °F (Sep 26, 6:00 AM)32% (Sep 24, 3:00 PM)29.80 "Hg (Sep 18, 12:00 AM)
Average58 °F77%30.07 "Hg
* Reported Sep 12 8:00 AM — Sep 27 8:00 AM, Drummondville, Weather by CustomWeather, © 2016

Note: Actual official high and low records may vary slightly from our data, if they occured in-between our weather recording intervals... More about our weather records

Advertising

Drummondville Weather History for the Previous 24 Hours

Scroll right to see more
 ConditionsComfort  
Time TempWeatherWind HumidityBarometerVisibility
8:00 AM
Tue, Sep 27
54 °FCool.2 mph97%29.84 "HgN/A
7:00 AM52 °FCool.1 mph97%29.82 "HgN/A
6:00 AM52 °FCool.2 mph97%29.81 "HgN/A
5:00 AM51 °FCool.3 mph96%29.81 "HgN/A
4:00 AM51 °FCool.3 mph96%29.83 "HgN/A
3:00 AM51 °FCool.2 mph94%29.83 "HgN/A
2:00 AM51 °FCool.2 mph90%29.85 "HgN/A
1:00 AM52 °FCool.5 mph88%29.86 "HgN/A
12:00 AM52 °FCool.5 mph87%29.87 "HgN/A
11:00 PM
Mon, Sep 26
53 °FCool.3 mph78%29.88 "HgN/A
10:00 PM54 °FCool.5 mph72%29.91 "HgN/A
9:00 PM54 °FCool.3 mph73%29.92 "HgN/A
8:00 PM52 °FCool.3 mph80%29.94 "HgN/A
7:00 PM52 °FCool.3 mph85%29.95 "HgN/A
6:00 PM54 °FCool.1 mph85%29.98 "HgN/A
5:00 PM58 °FCool.2 mph63%29.99 "HgN/A
4:00 PM61 °FRefreshingly cool.2 mph56%30.01 "HgN/A
3:00 PM60 °FRefreshingly cool.5 mph53%30.04 "HgN/A
1:00 PM58 °FRefreshingly cool.3 mph56%30.10 "HgN/A
12:00 PM59 °FRefreshingly cool.2 mph55%30.12 "HgN/A
11:00 AM56 °FCool.3 mph65%30.15 "HgN/A
10:00 AM50 °FCool.2 mph78%30.17 "HgN/A
Weather by CustomWeather, © 2016

See weather overviewHow to use our weather pages